This is the latest recevied weather packets stored in our database for station/object KC3ROS. If no packets are shown the sender has not sent any weather packets the latest 10 day(s).
| Time | Temp. | Humidity | Pressure | Rain* | Wind** | Luminosity | Snow |
|---|---|---|---|---|---|---|---|
| 1778003453 | 20.56° C | 54% | 1007.6 hPa | 0 mm | - | 669 W/m² | - |
| 1778003150 | 20° C | 56% | 1007.5 hPa | 0 mm | - | 353 W/m² | - |
| 1778002846 | 20° C | 59% | 1007.5 hPa | 0 mm | - | 160 W/m² | - |
| 1778002543 | 20° C | 57% | 1007.3 hPa | 0 mm | - | 151 W/m² | - |
| 1778002239 | 20° C | 58% | 1007.5 hPa | 0 mm | - | 115 W/m² | - |
| 1778001937 | 20.56° C | 59% | 1007.3 hPa | 0 mm | - | 120 W/m² | - |
| 1778001633 | 20.56° C | 58% | 1007.3 hPa | 0 mm | - | 169 W/m² | - |
| 1778001328 | 21.11° C | 57% | 1007 hPa | 0 mm | - | 190 W/m² | - |
| 1778001026 | 21.11° C | 56% | 1006.8 hPa | 0 mm | - | 289 W/m² | - |
| 1778000722 | 21.67° C | 56% | 1006.7 hPa | 0 mm | - | 251 W/m² | - |
| 1778000419 | 21.67° C | 54% | 1006.8 hPa | 0 mm | - | 319 W/m² | - |
| 1778000114 | 21.67° C | 53% | 1006.7 hPa | 0 mm | - | 251 W/m² | - |
| 1777999809 | 22.22° C | 53% | 1006.6 hPa | 0 mm | - | 266 W/m² | - |
| 1777999501 | 22.22° C | 53% | 1006.7 hPa | 0 mm | - | 195 W/m² | - |
| 1777999199 | 22.22° C | 55% | 1006.7 hPa | 0 mm | - | 236 W/m² | - |
| 1777998897 | 22.78° C | 56% | 1006.7 hPa | 0 mm | - | 232 W/m² | - |
| 1777998596 | 22.22° C | 55% | 1006.8 hPa | 0 mm | - | 197 W/m² | - |
| 1777998292 | 22.22° C | 56% | 1006.8 hPa | 0 mm | - | 323 W/m² | - |
| 1777997988 | 21.67° C | 57% | 1007 hPa | 0 mm | - | 649 W/m² | - |
| 1777997685 | 21.67° C | 58% | 1007.2 hPa | 0 mm | - | 261 W/m² | - |
| 1777997383 | 20.56° C | 59% | 1007.2 hPa | 0 mm | - | 447 W/m² | - |
| 1777997081 | 20.56° C | 62% | 1007.3 hPa | 0 mm | - | 242 W/m² | - |
| 1777996777 | 21.11° C | 61% | 1007.1 hPa | 0 mm | - | 173 W/m² | - |
| 1777996473 | 20.56° C | 63% | 1007 hPa | 0 mm | - | 219 W/m² | - |
| 1777996170 | 21.11° C | 61% | 1007 hPa | 0 mm | - | 187 W/m² | - |
* Rain latest hour (hover to see other rain measurements)
** Current wind speed in m/s (hover to see current wind gust speed)